Location: Newark
(33.6333°S, 78.8500°W)
Time: 22:34:54
(UTC+00:00)

Tiros 1 despin weight - Pass Details

Date: 21 September 2019
Orbit: 594 x 643 km, 48.2° (Epoch: 14 October)

Event Time Altitude Azimuth Distance (km) Brightness Sun altitude
Rises 03:31:51 0° 336° (NNW) 2,841 - -50.1°
Reaches altitude 10° 03:34:20 10° 347° (NNW) 1,952 - -50.4°
Maximum altitude 03:38:14 29° 47° (NE) 1,127 - -50.9°
Drops below altitude 10° 03:42:12 10° 107° (ESE) 1,999 - -51.4°
Sets 03:44:46 0° 118° (ESE) 2,921 - -51.8°
